Lexington Weather

Lexington, Massachusetts, USA

26°F
1/23/2020 9:05am 
  • Lexington Conditions: Partly cloudy
  • Temperature: 26.4°F / -3.1°CWarmer 3.4°F than last hour.
  • Dew Point: 18.9°FIncreased 1.1°Fsince last hour.
  • Relative Humidity: 73%Decreased 7.0% since last hour.
  • Wind: Calm, 10-min avg: Calm, gust: 4 mph
  • Barometer: 30.34 in Steady
  • Visibility: 10 miles
  • Snow Today: 0.0 in
  •   

Regional Weather Roundup
for Boston / Norton, MA

        
000
ASUS41 KBOX 210800
RWRBOX

REGIONAL WEATHER ROUNDUP
NATIONAL WEATHER SERVICE BOSTON/NORTON MA
300 AM EST TUE JAN 21 2020

NOTE:  "FAIR" INDICATES FEW OR NO CLOUDS BELOW 12,000 FEET WITH NO 
SIGNIFICANT WEATHER AND/OR OBSTRUCTIONS TO VISIBILITY.

MAZALL-210900-
EASTERN MASSACHUSETTS
  
CITY           SKY/WX    TMP DP  RH WIND       PRES   REMARKS
BOSTON         FAIR      21  -1  38 NW16G22   30.33S WCI   7          
BEVERLY        FAIR      17  -1  45 N7        30.31S WCI   8          
LAWRENCE       FAIR      16  -1  47 NW6       30.34S WCI   7          
BEDFORD        FAIR      16  -2  45 NW7       30.32S WCI   6          
BLUE HILL      NOT AVBL                                               
NORWOOD        FAIR       8  -2  63 CALM      30.33S                  
MARSHFIELD     NOT AVBL                                               
PLYMOUTH       FAIR      17   2  51 NW3       30.31R                  
TAUNTON        FAIR      15   1  53 W3        30.33R                  
NEW BEDFORD    FAIR      17   1  49 VRB7      30.32S WCI   8          
$$

MAZALL-210900-
CAPE COD AND THE ISLANDS
  
CITY           SKY/WX    TMP DP  RH WIND       PRES   REMARKS
FALMOUTH       CLEAR     16   0  48 NW6       30.30F WCI   7          
HYANNIS        NOT AVBL                                               
CHATHAM        FAIR      23  11  60 VRB6      30.29S WCI  16          
PROVINCETOWN   FAIR      24  15  68 N14G21    30.31R WCI  12          
NANTUCKET      FAIR      24   9  52 NW16      30.30R WCI  11          
MARTHAS VNYRD  FAIR      20   3  48 N13       30.31R WCI   7          
$$
 
MAZALL-210900-
CENTRAL AND WESTERN MASSACHUSETTS
  
CITY           SKY/WX    TMP DP  RH WIND       PRES   REMARKS
WORCESTER      FAIR      13  -4  46 NW9       30.26S WCI   1          
FITCHBURG      FAIR      10  -3  55 CALM      30.33S                  
ORANGE         FAIR       1  -4  79 E3        30.32F                  
SPRINGFIELD    FAIR       3  -3  78 CALM      30.34R                  
WESTFIELD      FAIR      15   3  59 W3        30.35S                  
NORTH ADAMS    FAIR       3  -2  79 NW3       30.34F                  
PITTSFIELD     FAIR      11   4  73 CALM      30.27S                  
$$
 
RIZALL-210900-
RHODE ISLAND
  
CITY           SKY/WX    TMP DP  RH WIND       PRES   REMARKS
PROVIDENCE     FAIR      18   0  45 NW8       30.34S WCI   8          
NEWPORT        FAIR      19   1  45 NW13G21   30.32S WCI   6          
BLOCK ISLAND   FAIR      20   4  50 N9        30.35S WCI   9          
SMITHFIELD     FAIR      14   0  53 NW7       30.31R WCI   4          
WESTERLY       FAIR      19   0  43 NW3       30.35S                  
$$
 
CTZALL-210900-
CONNECTICUT
  
CITY           SKY/WX    TMP DP  RH WIND       PRES   REMARKS
BRADLEY INTL   FAIR      15   4  61 N5        30.36R WCI   8          
HARTFORD       FAIR      13   5  70 CALM      30.38S                  
BRIDGEPORT     FAIR      18   6  59 W5        30.39S WCI  11          
DANBURY        FAIR       9   1  70 SW3       30.37S                  
GROTON         NOT AVBL                                               
NEW HAVEN      FAIR      21   8  57 NW5       30.38R WCI  15          
CHESTER        FAIR      12   3  67 CALM      30.34R                  
MERIDEN        FAIR      16   6  65 W8        30.37S WCI   5          
WILLIMANTIC    FAIR      11   1  64 CALM      30.36S                  
OXFORD         FAIR      16   7  67 N7        30.33R WCI   6          
$$

MEZ002-015-021-024-NHZ003-005-008-011-012-014-VTZ005-008-210900-
NORTHERN NEW ENGLAND
  
CITY           SKY/WX    TMP DP  RH WIND       PRES   REMARKS
PORTLAND ME    FAIR       4  -4  69 SW3       30.32R                  
BANGOR ME      FAIR       7  -2  66 SW3       30.29R                  
CONCORD NH     FAIR       9  -4  55 NW5       30.33S WCI   1          
MANCHESTER NH  FAIR      15  -2  46 NW13      30.31S WCI   1          
NASHUA NH      FAIR      12   0  58 NW5       30.34F WCI   4          
PORTSMOUTH NH  NOT AVBL                                               
JAFFREY NH     FAIR       8  -3  61 CALM      30.26F                  
KEENE NH       FAIR      -5  -9  83 CALM      30.35S                  
BURLINGTON VT  FAIR       0  -5  79 CALM      30.38R                  
MT. WASHINGTON NOT AVBL                                               
$$

NYZ052-076-210900-
EASTERN NEW YORK
  
CITY           SKY/WX    TMP DP  RH WIND       PRES   REMARKS
ALBANY         FAIR      13   4  67 NW8       30.40S WCI   2          
NEW YORK CITY  FAIR      21   6  52 N7        30.40R WCI  12          
$$
 
ANZALL-210900-
MARINE OBSERVATIONS
  
STATION/POSITION TIME  TEMP    WIND        PRES    VSBY  WAVE
                       AIR SEA DIR/SP/G                  HT/PER
                 (UTC) (F)     (DEG/KT/KT) (MB)    (MI)  (FT/S)
BOSTON BUOY      0650   23 43  330/ 23/ 29 1025.4          4/ 4
BUZZARDS BAY     0700   22     340/ 16/ 19 1027.3R
NANTUCKET SOUND  0700                      1026.1
MASS BAY-STELLWA 0704   22 41  350/ 17/ 23 1024.7R  1 7/8  3/ 3
ISLE OF SHOALS   0700   19     320/ 18/ 21 1025.9R
S OF BLOCK IS    0730      45                N/A           3/ 4
$$

......................KEY.........................
  SKY/WX - SKY CONDITION/PRESENT WEATHER
  TMP    - TEMPERATURE IN FAHRENHEIT
  DWPT   - DEWPOINT IN FAHRENHEIT
  RH     - RELATIVE HUMIDITY IN PERCENT
  WIND   - DIRECTION AND SPEED IN MPH
  PRES   - MEAN SEA LEVEL PRESSURE IN INCHES OF HG
  WCI    - WIND CHILL INDEX
  VSB    - VISIBILITY IN MILES
  HX     - HEAT INDEX
  TC     - TEMPERATURE IN CELSIUS
  VRB    - VARIABLE WIND DIRECTION
  N/A    - NOT AVAILABLE
  
      

Other recent Regional Weather Roundups

Thu Jan 23, 8:10am

Thu Jan 23, 8:00am

Thu Jan 23, 7:10am

Thu Jan 23, 7:01am

Thu Jan 23, 6:10am

Thu Jan 23, 6:00am

Thu Jan 23, 5:10am

Thu Jan 23, 5:00am

Thu Jan 23, 4:10am

Thu Jan 23, 4:01am

Thu Jan 23, 3:10am

Thu Jan 23, 3:00am

Thu Jan 23, 2:10am

Thu Jan 23, 2:00am

Thu Jan 23, 1:10am

Thu Jan 23, 1:00am

Thu Jan 23, 12:10am

Thu Jan 23, 12:00am

Wed Jan 22, 11:10pm

Wed Jan 22, 11:01pm

Wed Jan 22, 10:10pm

Wed Jan 22, 10:00pm

Wed Jan 22, 9:10pm

Wed Jan 22, 9:00pm

Wed Jan 22, 8:10pm

Wed Jan 22, 8:01pm

Wed Jan 22, 7:10pm

Wed Jan 22, 7:00pm

Wed Jan 22, 6:10pm

Wed Jan 22, 6:01pm

Wed Jan 22, 5:10pm

Wed Jan 22, 5:00pm

Wed Jan 22, 4:10pm

Wed Jan 22, 4:00pm

Wed Jan 22, 3:10pm

Wed Jan 22, 3:00pm

Wed Jan 22, 2:10pm

Wed Jan 22, 2:00pm

Wed Jan 22, 1:10pm

Wed Jan 22, 1:00pm

Wed Jan 22, 12:10pm

Wed Jan 22, 12:00pm

Wed Jan 22, 11:10am

Wed Jan 22, 11:00am

Wed Jan 22, 10:10am

Wed Jan 22, 10:01am

Wed Jan 22, 9:10am

Wed Jan 22, 9:00am

Wed Jan 22, 8:10am

Wed Jan 22, 8:00am

Wed Jan 22, 7:10am

Wed Jan 22, 7:00am

Wed Jan 22, 6:10am

Wed Jan 22, 6:00am

Wed Jan 22, 5:10am

Wed Jan 22, 5:00am

Wed Jan 22, 4:10am

Wed Jan 22, 4:00am

Wed Jan 22, 3:10am

Wed Jan 22, 3:01am

Wed Jan 22, 2:10am

Wed Jan 22, 2:00am

Wed Jan 22, 1:10am

Wed Jan 22, 1:00am

Wed Jan 22, 12:10am

Wed Jan 22, 12:00am

Tue Jan 21, 11:10pm

Tue Jan 21, 11:00pm

Tue Jan 21, 10:10pm

Tue Jan 21, 10:00pm

Tue Jan 21, 9:10pm

Tue Jan 21, 9:01pm

Tue Jan 21, 8:10pm

Tue Jan 21, 8:00pm

Tue Jan 21, 7:10pm

Tue Jan 21, 7:00pm

Tue Jan 21, 6:10pm

Tue Jan 21, 6:01pm

Tue Jan 21, 5:10pm

Tue Jan 21, 5:00pm

Tue Jan 21, 4:10pm

Tue Jan 21, 4:00pm

Tue Jan 21, 3:10pm

Tue Jan 21, 3:01pm

Tue Jan 21, 2:10pm

Tue Jan 21, 2:00pm

Tue Jan 21, 1:10pm

Tue Jan 21, 1:00pm

Tue Jan 21, 12:10pm

Tue Jan 21, 12:00pm

Tue Jan 21, 11:10am

Tue Jan 21, 11:00am

Tue Jan 21, 10:10am

Tue Jan 21, 10:00am

Tue Jan 21, 9:10am

Tue Jan 21, 9:00am

Tue Jan 21, 8:10am

Tue Jan 21, 8:00am

Tue Jan 21, 7:10am

Tue Jan 21, 7:00am

Tue Jan 21, 6:10am

Tue Jan 21, 6:00am

Tue Jan 21, 5:10am

Tue Jan 21, 5:00am

Tue Jan 21, 4:10am

Tue Jan 21, 4:00am

Tue Jan 21, 3:10am

Tue Jan 21, 2:10am

Tue Jan 21, 2:01am

Tue Jan 21, 1:10am

Tue Jan 21, 1:00am

Tue Jan 21, 12:10am

Tue Jan 21, 12:00am

Mon Jan 20, 11:10pm

Mon Jan 20, 11:00pm

Mon Jan 20, 10:10pm

Mon Jan 20, 10:00pm

Mon Jan 20, 9:10pm

Mon Jan 20, 9:00pm

Mon Jan 20, 8:10pm

Mon Jan 20, 8:00pm

Mon Jan 20, 7:10pm

Mon Jan 20, 7:00pm

Mon Jan 20, 6:10pm

Mon Jan 20, 6:00pm

Mon Jan 20, 5:10pm

Mon Jan 20, 5:00pm

Mon Jan 20, 4:10pm

Mon Jan 20, 4:01pm

Mon Jan 20, 3:10pm

Mon Jan 20, 3:00pm

Mon Jan 20, 2:10pm

Mon Jan 20, 2:00pm

Mon Jan 20, 1:10pm

Mon Jan 20, 1:00pm

Mon Jan 20, 12:10pm

Mon Jan 20, 12:00pm

Mon Jan 20, 11:10am

Mon Jan 20, 11:00am

Mon Jan 20, 10:10am

Mon Jan 20, 10:00am

Mon Jan 20, 9:10am

Mon Jan 20, 9:00am

Meta data:

ID: cb2e07a7-eef8-4049-8382-41aa2d2552bb
Link: https://api.weather.gov/products/cb2e07a7-eef8-4049-8382-41aa2d2552bb